STARLINK-1564, 46058

Orbit data source: Space-Track

STARLINK-1564, 46058 is a payload satellite owned by SpaceX/Seattle (US) in LEO that was launched on Fri, 07 Aug 2020 UTC via an FALCON 9 launch vehicle from the Air Force Eastern Test Range (AFETR). Payload-class satellites include a variety of spacecraft equipped with specific instruments for various scientific and technological missions. These include communications satellites like Starlink; space stations such as the ISS; scientific satellites like the Hubble; Earth observation satellites from companies like Planet Labs, Umbra, and HawkEye 360; GPS; miniature CubeSats for education and research; and military/defense satellites.

Loading next visibility...
Identifier
46058, 2020-055AH
Orbit
LEO
Country
Flag of USUS
Related business
Manufacturer
SpaceX/Seattle
Mission
Operational Commercial Communications
Bus & Motor
STARLINK, Unknown motor
Mass
260 kg wet, ~248 kg dry
Launch date (UTC)
2020-08-07 (5 years ago)
Launch vehicle
FALCON 9
Launch site
Air Force Eastern Test Range (AFETR)
Object type
Payload
Rocket body
Debris
Shape & HBR
Box + 1 Pan, 10.1 m
Radar Cross Section
13.562 m², Large (>1 m²)

Expand to show TLE details & history
Last TLE update: 17 hours ago

TLE from 17 hours ago
0 STARLINK-1564
1 46058U 20055AH  25304.51559250  .00011111  00000-0  76342-3 0  9991
2 46058  53.0559 336.9658 0001581 102.8444 257.2722 15.06411271289554
Epoch: 2025-10-31T12:22Z
TLE epoch observation values (Epoch: 2025-10-31T12:22:27.192Z)
Latitude
0.00003°
Longitude
111.29361°
Altitude
548.298 km
Speed
7.589 km/s
True Right ascension
22h 27m 51s
True Declination
0° 00' 00"
Sunlit
Object was in full shadow at epoch
Visualization orbit readout
Latitude
Unknown
Longitude
Unknown
Altitude
Unknown
Speed
Unknown
Apparent Right ascension
Unknown
Apparent Declination
Unknown
Sunlit
N/A
Visualization observer readout
Local Sidereal Time
01:13:18
Azimuth
Unknown
Elevation
Unknown
Doppler factor
Unknown
Orbital elements
Apogee altitude
548.542 km
Perigee altitude
546.353 km
Semi-major axis
6,925.585 km
Eccentricity
0.00016
Inclination
53.0559°
RAAN
336.9658°
Arg. of periapsis
102.8444°
True anomaly
257.25453°
Mean anomaly
257.2722°
Eccentric anomaly
257.26336°
Mean motion
3.76581 °/min
Orbital period
95.6 mins
BSTAR
0.00076342
Loading maneuver chart data...
Computing Atmospheric mass density...
Loading historical data...
Loading historical data...
Loading historical data...
Loading historical data...
Loading historical data...
Loading historical data...
Loading historical data...

Documentation

Showing up to 5 results
|